User: anonymous   Login
Location: Caltech
(34.1382°N, 118.1253°W)
Time: 22:33:50
(UTC-07:00)
Language:

Oscar 16 - Orbit

View from above orbital plane
View from above orbital plane
View from above satellite
View from above satellite

Ground track
Ground track

The orbit data is extracted from the following two-line orbital elements,

1 20439U 90005D   16151.86398872  .00000028  00000-0  26288-4 0  9997
2 20439  98.5733  88.5678 0010205 205.5107 190.6706 14.32631655376668
Epoch (UTC): 30 May 2016 20:44:08
Eccentricity: 0.0010205
inclination: 98.5733°
perigee height: 775 km
apogee height: 790 km
right ascension of ascending node: 88.5678°
argument of perigee: 205.5107°
revolutions per day: 14.32631655
mean anomaly at epoch: 190.6706°
orbit number at epoch: 37666

The dashed part of the orbit path shows where the satellite is in the earth's shadow,  

DLR